Faro, Portugal

1:11 AM WET on November 23, 2019 (GMT +0000)
Faro

Weather History for LPFR - September, 2019

Change the Weather History Date:

Sunday, September 29, 2019

  Actual Average Record
Temperature  
Mean Temperature 68 °F -  
Max Temperature 75 °F 71 °F 86 °F (2016)
Min Temperature 60 °F 58 °F 59 °F (1996)
Cooling Degree Days 2    
Growing Degree Days 18 (Base 50)    
Moisture  
Dew Point 58 °F    
Average Humidity 66    
Maximum Humidity 88    
Minimum Humidity 40    
Precipitation  
Precipitation 0.00 in 0.09 in - ()
Sea Level Pressure  
Sea Level Pressure 30.05 in    
Wind  
Wind Speed 4 mph ()    
Max Wind Speed 9 mph    
Max Gust Speed -    
Visibility 12.0 miles    
Events      
Averages and records for this station are not official NWS values.
T = Trace of Precipitation, MM = Missing Value Source: Averaged Metar Reports

Daily Weather History Graph

Daily Weather History Graph

Search for Another Location

Airport or City:

Astronomy

Sep. 29, 2019 Rise Set
Actual Time 7:25 AM WEST 7:18 PM WEST
Civil Twilight 6:59 AM WEST 7:44 PM WEST
Nautical Twilight 6:29 AM WEST 8:14 PM WEST
Astronomical Twilight 5:58 AM WEST 8:45 PM WEST
Moon 7:59 AM WEST (9/29) 8:11 PM WEST (9/29)
Length of Visible Light 12h 45m
Length of Day
11h 53m
New Moon, 1% of the Moon is Illuminated
Sep 29
New Moon
Oct 5
First Quarter
Oct 13
Full
Oct 21
Last Quarter
Oct 28
New

Hourly Weather History & Observations

Time (WEST) Temp. Dew Point Humidity Pressure Visibility Wind Dir Wind Speed Gust Speed Precip Events Conditions
12:00 AM 69 °F 54 °F 49% 30.06 in - Calm Calm - -  
12:00 AM 68.0 °F 53.6 °F 60% 30.04 in - Variable 2.3 mph - N/A   Clear
12:30 AM 69.8 °F 53.6 °F 56% 30.04 in - Calm Calm - N/A   Clear
1:00 AM 69 °F 51 °F 41% 30.06 in 12 mi North 4.5 mph - -   Clear
1:00 AM 69.8 °F 50.0 °F 49% 30.04 in - Calm Calm - N/A   Clear
1:30 AM 66.2 °F 53.6 °F 64% 30.04 in - SE 3.5 mph - N/A   Clear
2:00 AM 68 °F 59 °F 64% 30.07 in - East 2.2 mph - -  
2:00 AM 68.0 °F 57.2 °F 68% 30.04 in - Variable 2.3 mph - N/A   Clear
2:30 AM 66.2 °F 57.2 °F 73% 30.04 in - Calm Calm - N/A   Clear
3:00 AM 66.2 °F 55.4 °F 68% 30.04 in - Calm Calm - N/A   Clear
3:30 AM 66.2 °F 53.6 °F 64% 30.04 in - NNE 2.3 mph - N/A   Clear
4:00 AM 67 °F 53 °F 50% 30.05 in 12 mi NE 2.2 mph - -   Clear
4:00 AM 66.2 °F 51.8 °F 60% 30.04 in - NE 3.5 mph - N/A   Clear
4:30 AM 66.2 °F 51.8 °F 60% 30.01 in - NNE 5.8 mph - N/A   Clear
5:00 AM 66.2 °F 50.0 °F 56% 30.01 in - North 6.9 mph - N/A   Clear
5:30 AM 62.6 °F 50.0 °F 63% 30.01 in - NNE 5.8 mph - N/A   Clear
6:00 AM 62.6 °F 50.0 °F 63% 30.04 in - North 3.5 mph - N/A   Clear
6:30 AM 62.6 °F 51.8 °F 68% 30.01 in - NNE 2.3 mph - N/A   Clear
7:00 AM 64 °F 51 °F 53% 30.06 in 12 mi North 2.2 mph - -   Clear
7:00 AM 60.8 °F 50.0 °F 68% 30.04 in - NW 2.3 mph - N/A   Clear
7:30 AM 62.6 °F 51.8 °F 68% 30.04 in - North 4.6 mph - N/A   Clear
8:00 AM 62.6 °F 51.8 °F 68% 30.04 in - NNE 6.9 mph - N/A   Clear
8:30 AM 69.8 °F 51.8 °F 53% 30.04 in - NNE 5.8 mph - N/A   Clear
9:00 AM 72 °F 53 °F 40% 30.08 in - East 4.5 mph - -  
9:00 AM 71.6 °F 51.8 °F 50% 30.06 in - NE 4.6 mph - N/A   Clear
9:30 AM 71.6 °F 55.4 °F 57% 30.06 in - East 8.1 mph - N/A   Clear
10:00 AM 73 °F 64 °F 66% 30.10 in - ESE 8.9 mph - -  
10:00 AM 71.6 °F 64.4 °F 78% 30.06 in - ESE 9.2 mph - N/A   Clear
10:30 AM 73.4 °F 64.4 °F 73% 30.06 in - SE 9.2 mph - N/A   Clear
11:00 AM 73.4 °F 66.2 °F 78% 30.09 in - SE 8.1 mph - N/A   Clear
11:30 AM 73.4 °F 66.2 °F 78% 30.09 in - SSE 9.2 mph - N/A   Clear
12:00 PM 74 °F 65 °F 67% 30.12 in - SSE 8.9 mph - -  
12:00 PM 73.4 °F 64.4 °F 73% 30.09 in - SSE 9.2 mph - N/A   Clear
12:30 PM 73.4 °F 64.4 °F 73% 30.09 in - SSE 9.2 mph - N/A   Clear
1:00 PM 74 °F 65 °F 66% 30.12 in 12 mi South 4.6 mph - -   Clear
1:00 PM 73.4 °F 64.4 °F 73% 30.09 in - SSE 9.2 mph - N/A   Clear
1:30 PM 73.4 °F 64.4 °F 73% 30.09 in - SSE 9.2 mph - N/A   Clear
2:00 PM 73 °F 65 °F 70% 30.10 in - South 8.9 mph - -  
2:00 PM 73.4 °F 64.4 °F 73% 30.06 in - South 8.1 mph - N/A   Clear
2:30 PM 73.4 °F 66.2 °F 78% 30.06 in - SSE 8.1 mph - N/A   Clear
3:00 PM 71.6 °F 66.2 °F 83% 30.06 in - SSW 8.1 mph - N/A   Clear
3:30 PM 71.6 °F 64.4 °F 78% 30.06 in - SSW 6.9 mph - N/A   Clear
4:00 PM 73 °F 64 °F 67% 30.08 in 12 mi SSW 6.7 mph - -   Clear
4:00 PM 71.6 °F 64.4 °F 78% 30.04 in - SSW 6.9 mph - N/A   Clear
4:30 PM 73.4 °F 64.4 °F 73% 30.04 in - SW 5.8 mph - N/A   Clear
5:00 PM 73.4 °F 60.8 °F 65% 30.04 in - SSW 5.8 mph - N/A   Clear
5:30 PM 73.4 °F 59.0 °F 61% 30.04 in - SSW 5.8 mph - N/A   Clear
6:00 PM 73 °F 62 °F 60% 30.05 in - WSW 4.5 mph - -  
6:00 PM 71.6 °F 62.6 °F 73% 30.04 in - WSW 5.8 mph - N/A   Clear
6:30 PM 71.6 °F 62.6 °F 73% 30.04 in - WSW 5.8 mph - N/A   Clear
7:00 PM 71 °F 62 °F 65% 30.05 in 12 mi West 2.3 mph - -   Clear
7:00 PM 69.8 °F 64.4 °F 83% 30.04 in - WSW 5.8 mph - N/A   Clear
7:30 PM 69.8 °F 64.4 °F 83% 30.04 in - WSW 5.8 mph - N/A   Clear
8:00 PM 68.0 °F 64.4 °F 88% 30.04 in - West 6.9 mph - N/A   Clear
8:30 PM 68.0 °F 62.6 °F 83% 30.04 in - West 6.9 mph - N/A   Clear
9:00 PM 70 °F 54 °F 48% 30.06 in - NNW 4.5 mph - -  
9:00 PM 69.8 °F 57.2 °F 64% 30.04 in - WNW 6.9 mph - N/A   Clear
9:30 PM 69.8 °F 51.8 °F 53% 30.04 in - WNW 6.9 mph - N/A   Clear
10:00 PM 70 °F 54 °F 47% 30.07 in 12 mi NW 4.5 mph - -   Clear
10:00 PM 69.8 °F 53.6 °F 56% 30.04 in - West 4.6 mph - N/A   Clear
10:30 PM 68.0 °F 55.4 °F 64% 30.04 in - West 4.6 mph - N/A   Clear
11:00 PM 68 °F 57 °F 60% 30.07 in - WNW 6.7 mph - -  
11:00 PM 68.0 °F 57.2 °F 68% 30.04 in - West 5.8 mph - N/A   Clear
11:30 PM 66.2 °F 57.2 °F 73% 30.04 in - West 4.6 mph - N/A   Clear